Harrison, AR

12:36 PM CDT on July 22, 2017 (GMT -0500)
Boone County

Weather History for KHRO - December, 2013

Change the Weather History Date:

Saturday, December 21, 2013

  Actual Average Record
Temperature  
Mean Temperature 38 °F 37 °F  
Max Temperature 41 °F 46 °F 69 °F (2015)
Min Temperature 34 °F 27 °F -5 °F (1989)
Degree Days  
Heating Degree Days 27 28  
Month to date heating degree days 576 546  
Since 1 July heating degree days 1389 1310  
Cooling Degree Days 0 0  
Month to date cooling degree days 0 0  
Year to date cooling degree days 1414 1416  
Moisture  
Dew Point 36 °F    
Average Humidity 96    
Maximum Humidity 100    
Minimum Humidity 92    
Precipitation  
Precipitation 1.33 in 0.10 in 2.46 in (1984)
Month to date precipitation 3.73 2.25  
Year to date precipitation 45.24 43.19  
Snow  
Snow 0.00 in 0.10 in 2.00 in (1916)
Month to date snowfall 9.0 0.3  
Since 1 July snowfall 9.0 0.8  
Snow Depth 0.00 in    
Sea Level Pressure  
Sea Level Pressure 29.67 in    
Wind  
Wind Speed 5 mph (NNW)    
Max Wind Speed 14 mph    
Max Gust Speed 21 mph    
Visibility 4 miles    
Events Fog , Rain , Thunderstorm    
T = Trace of Precipitation, MM = Missing Value Source: NWS Daily Summary

Daily Weather History Graph

Daily Weather History Graph

Search for Another Location

Airport or City:

Trip Planner

Search our weather history database for the weather conditions in past years. The results will help you decide how hot, cold, wet, or windy it might be!

Date:

Astronomy

Dec. 21, 2013 Rise Set
Actual Time 7:20 AM CST 5:01 PM CST
Civil Twilight 6:51 AM CST 5:30 PM CST
Nautical Twilight 6:19 AM CST 6:02 PM CST
Astronomical Twilight 5:47 AM CST 6:33 PM CST
Moon 9:11 PM CST (12/21) 9:52 AM CST (12/21)
Length of Visible Light 10h 38m
Length of Day
9h 41m
Waning Gibbous, 84% of the Moon is Illuminated
Dec 21
Waning Gibbous
Dec 25
Last Quarter
Jan 1
New
Jan 7
First Quarter
Jan 15
Full

Hourly Weather History & Observations

Time (CST) Temp. Windchill Dew Point Humidity Pressure Visibility Wind Dir Wind Speed Gust Speed Precip Events Conditions
12:02 AM 35.6 °F 29.9 °F 33.8 °F 93% 29.75 in 4.0 mi ENE 6.9 mph - 0.00 in Rain Rain
12:49 AM 35.6 °F 31.7 °F 33.8 °F 93% 29.73 in 5.0 mi North 4.6 mph - 0.02 in Rain Rain
12:53 AM 35.1 °F 32.2 °F 34.0 °F 96% 29.73 in 4.0 mi North 3.5 mph - 0.02 in Rain Light Rain
1:53 AM 34.0 °F 26.6 °F 33.1 °F 96% 29.78 in 4.0 mi WNW 9.2 mph - 0.04 in Rain , Thunderstorm Light Rain
2:02 AM 33.8 °F 25.3 °F 33.8 °F 100% 29.74 in 3.0 mi NNW 11.5 mph 17.3 mph 0.04 in Rain Light Rain
2:23 AM 33.8 °F 28.6 °F 33.8 °F 100% 29.75 in 3.0 mi NNW 5.8 mph - 0.09 in Rain Rain
2:34 AM 33.8 °F 28.6 °F 33.8 °F 100% 29.74 in 5.0 mi NW 5.8 mph - 0.12 in Rain Light Rain
2:53 AM 34.0 °F 28.8 °F 34.0 °F 100% 29.74 in 10.0 mi WNW 5.8 mph - 0.13 in Rain Light Rain
3:16 AM 33.8 °F 29.6 °F 33.8 °F 100% 29.74 in 4.0 mi West 4.6 mph - 0.07 in Rain Rain
3:53 AM 35.1 °F 27.9 °F 35.1 °F 100% 29.74 in 10.0 mi West 9.2 mph - 0.10 in Rain Light Rain
4:26 AM 35.6 °F 30.7 °F 35.6 °F 100% 29.73 in 4.0 mi NW 5.8 mph - 0.09 in Rain Rain
4:43 AM 35.6 °F - 35.6 °F 100% 29.72 in 6.0 mi Calm Calm - 0.13 in Rain Light Rain
4:53 AM 36.0 °F - 36.0 °F 100% 29.72 in 10.0 mi Calm Calm - 0.13 in Rain Light Rain
5:27 AM 35.6 °F 29.9 °F 35.6 °F 100% 29.73 in 2.5 mi NW 6.9 mph - 0.09 in Rain Heavy Rain
5:37 AM 35.6 °F 29.9 °F 35.6 °F 100% 29.74 in 2.5 mi NW 6.9 mph - 0.15 in Rain Heavy Rain
5:42 AM 35.6 °F 32.8 °F 35.6 °F 100% 29.75 in 3.0 mi WNW 3.5 mph - 0.18 in Rain Heavy Rain
5:53 AM 36.0 °F 31.1 °F 35.1 °F 97% 29.74 in 4.0 mi NNW 5.8 mph - 0.21 in Rain Rain
5:56 AM 35.6 °F 31.7 °F 35.6 °F 100% 29.72 in 4.0 mi North 4.6 mph - 0.01 in Rain Rain
6:48 AM 35.6 °F 28.6 °F 33.8 °F 93% 29.73 in 5.0 mi NW 9.2 mph - 0.13 in Rain Rain
6:53 AM 35.1 °F 26.4 °F 33.1 °F 92% 29.75 in 5.0 mi NW 12.7 mph - 0.14 in Rain Rain
7:10 AM 35.6 °F 27.5 °F 33.8 °F 93% 29.72 in 8.0 mi NW 11.5 mph 20.7 mph 0.01 in Rain Light Rain
7:23 AM 33.8 °F 26.4 °F 33.8 °F 100% 29.73 in 5.0 mi WNW 9.2 mph 18.4 mph 0.04 in Rain Rain
7:34 AM 33.8 °F 27.0 °F 33.8 °F 100% 29.75 in 4.0 mi WNW 8.1 mph - 0.07 in Rain Rain
7:49 AM 33.8 °F 27.0 °F 33.8 °F 100% 29.76 in 4.0 mi WSW 8.1 mph - 0.11 in Rain Rain
7:53 AM 34.0 °F 28.0 °F 34.0 °F 100% 29.75 in 5.0 mi North 6.9 mph - 0.11 in Rain Light Rain
8:05 AM 33.8 °F 30.8 °F 33.8 °F 100% 29.72 in 10.0 mi Variable 3.5 mph - 0.00 in Rain Light Rain
8:42 AM 35.6 °F - 33.8 °F 93% 29.70 in 5.0 mi Calm Calm - 0.04 in Rain Light Rain
8:53 AM 35.1 °F - 34.0 °F 96% 29.71 in 5.0 mi Calm Calm - 0.06 in Rain Light Rain
9:02 AM 35.6 °F - 33.8 °F 93% 29.72 in 5.0 mi Calm Calm - 0.01 in Rain Light Rain
9:25 AM 35.6 °F 31.7 °F 33.8 °F 93% 29.71 in 4.0 mi SSE 4.6 mph - 0.03 in Rain Light Rain
9:53 AM 36.0 °F - 34.0 °F 93% 29.74 in 2.5 mi Calm Calm - 0.07 in Rain Rain
10:00 AM 35.6 °F - 33.8 °F 93% 29.71 in 3.0 mi Calm Calm - 0.00 in Rain Light Rain
10:18 AM 35.6 °F - 35.6 °F 100% 29.69 in 3.0 mi Calm Calm - 0.02 in Rain Light Rain
10:40 AM 35.6 °F 31.7 °F 35.6 °F 100% 29.68 in 7.0 mi SSE 4.6 mph - 0.03 in Rain Light Rain
10:53 AM 37.0 °F 34.5 °F 36.0 °F 96% 29.70 in 3.0 mi South 3.5 mph - 0.03 in Rain Light Rain
10:58 AM 35.6 °F 32.8 °F 35.6 °F 100% 29.67 in 2.5 mi SSW 3.5 mph - 0.01 in Rain Rain
11:10 AM 37.4 °F - 35.6 °F 93% 29.66 in 3.0 mi Calm Calm - 0.03 in Rain Light Rain
11:29 AM 37.4 °F - 37.4 °F 100% 29.66 in 10.0 mi Calm Calm - 0.03 in   Overcast
11:53 AM 37.9 °F - 37.0 °F 97% 29.66 in 7.0 mi Calm Calm - 0.04 in Rain Light Rain
12:16 PM 39.2 °F 34.2 °F 37.4 °F 93% 29.65 in 6.0 mi SSE 6.9 mph - 0.01 in Rain Light Rain
12:28 PM 39.2 °F 33.0 °F 39.2 °F 100% 29.64 in 5.0 mi SE 9.2 mph - 0.02 in Rain Rain
12:53 PM 39.9 °F 37.8 °F 39.9 °F 100% 29.63 in 3.0 mi ENE 3.5 mph - 0.09 in Rain Rain
1:33 PM 41.0 °F 37.1 °F 39.2 °F 93% 29.57 in 6.0 mi NNE 5.8 mph - 0.06 in Rain Light Rain
1:53 PM 39.9 °F 35.8 °F 39.9 °F 100% 29.60 in 7.0 mi NNW 5.8 mph - 0.07 in Rain Light Rain
2:09 PM 39.2 °F 35.0 °F 39.2 °F 100% 29.57 in 6.0 mi NNW 5.8 mph - 0.01 in Rain Light Rain
2:53 PM 39.0 °F 35.7 °F 37.9 °F 96% 29.57 in 4.0 mi North 4.6 mph - 0.02 in Rain Light Rain
3:16 PM 39.2 °F - 39.2 °F 100% 29.60 in 2.0 mi Calm Calm - 0.00 in   Overcast
3:23 PM 39.2 °F - 39.2 °F 100% 29.60 in 1.8 mi Calm Calm - 0.00 in Rain Light Rain
3:49 PM 39.2 °F 37.0 °F 39.2 °F 100% 29.59 in 2.0 mi NNW 3.5 mph - 0.03 in Rain Light Rain
3:53 PM 39.0 °F 36.8 °F 39.0 °F 100% 29.61 in 2.5 mi North 3.5 mph - 0.03 in Rain Light Rain
4:00 PM 39.2 °F 37.0 °F 39.2 °F 100% 29.59 in 4.0 mi North 3.5 mph - 0.01 in Rain Light Rain
4:53 PM 39.0 °F 35.7 °F 37.9 °F 96% 29.60 in 1.8 mi NNE 4.6 mph - 0.03 in Rain Light Rain
5:02 PM 39.2 °F 37.0 °F 37.4 °F 93% 29.57 in 3.0 mi ENE 3.5 mph - 0.00 in Rain Light Rain
5:53 PM 39.0 °F 31.8 °F 37.9 °F 96% 29.53 in 7.0 mi ENE 11.5 mph - 0.01 in Rain Light Rain
6:04 PM 37.4 °F 32.1 °F 37.4 °F 100% 29.49 in 2.0 mi East 6.9 mph - 0.00 in Rain Light Rain
6:12 PM 37.4 °F 32.8 °F 37.4 °F 100% 29.50 in 10.0 mi Variable 5.8 mph - 0.00 in   Overcast
6:53 PM 39.0 °F - 37.9 °F 96% 29.51 in 10.0 mi Calm Calm - 0.00 in   Overcast
7:53 PM 39.0 °F 34.8 °F 37.9 °F 96% 29.58 in 3.0 mi South 5.8 mph - N/A   Overcast
7:58 PM 39.2 °F 35.9 °F 37.4 °F 93% 29.57 in 1.8 mi South 4.6 mph - N/A   Overcast
8:11 PM 39.2 °F 37.0 °F 37.4 °F 93% 29.58 in 0.5 mi Variable 3.5 mph - N/A Fog Fog
8:37 PM 39.2 °F 34.2 °F 39.2 °F 100% 29.60 in 0.2 mi NNW 6.9 mph - N/A Fog Fog
8:44 PM 39.2 °F 35.0 °F 39.2 °F 100% 29.61 in 0.5 mi NNW 5.8 mph - N/A Fog Fog
8:53 PM 39.0 °F 35.7 °F 39.0 °F 100% 29.63 in 0.8 mi NNW 4.6 mph - N/A   Mist
9:04 PM 39.2 °F 37.0 °F 39.2 °F 100% 29.62 in 0.5 mi NNW 3.5 mph - N/A Fog Fog
9:53 PM 39.0 °F 34.8 °F 39.0 °F 100% 29.68 in 1.0 mi WNW 5.8 mph - 0.00 in Rain Light Rain
10:04 PM 39.2 °F 35.0 °F 39.2 °F 100% 29.67 in 3.0 mi NW 5.8 mph - 0.00 in Rain Light Rain
10:53 PM 39.0 °F - 37.9 °F 96% 29.68 in 2.5 mi Calm Calm - 0.00 in   Mostly Cloudy
11:00 PM 37.4 °F - 37.4 °F 100% 29.67 in 0.8 mi Calm Calm - N/A   Overcast
11:12 PM 37.4 °F - 37.4 °F 100% 29.67 in 0.2 mi Calm Calm - N/A Fog Fog
11:53 PM 39.0 °F 36.8 °F 39.0 °F 100% 29.68 in 0.2 mi SE 3.5 mph - N/A Fog Fog